User: anonymous   Login
Location: Cosy Dell
(34.2789°N, 117.4537°W)
Time: 01:23:16
(UTC+00:00)
Language:

Sich 1 Rocket - Orbit

View from above orbital plane
View from above orbital plane
View from above satellite
View from above satellite

Ground track
Ground track

The orbit data is extracted from the following two-line orbital elements,

1 23659U 95046C   20272.50159142  .00000105  00000-0  11222-4 0  9997
2 23659  82.5271 272.5635 0024065 270.8838 202.3633 14.78346831351738
Epoch (UTC): 28 September 2020 12:02:17
Eccentricity: 0.0024065
inclination: 82.5271°
perigee height: 617 km
apogee height: 651 km
right ascension of ascending node: 272.5635°
argument of perigee: 270.8838°
revolutions per day: 14.78346831
mean anomaly at epoch: 202.3633°
orbit number at epoch: 35173

The dashed part of the orbit path shows where the satellite is in the earth's shadow,  

DLR